Home > Weather > Skien > Past weeks

Flag for Norway Weather for the Past 2 Weeks in Skien, Norway

Now
39 °F

Low clouds.


Feels Like: 31 °F
Forecast: 28 / 40 °F
Wind: 15 mph from South

Location: Torp

Current Time: Feb 8, 2016 at 7:08:05 PM

Latest Report: Feb 8, 2016 at 6:20 PM


Visibility: 4 mi

Pressure: 28.80 "Hg

Humidity: 100%

Dew point: 39 °F

Location of SkienLocation

Historic Weather in Skien — Graph

°F

Skien Temperature Yesterday

Maximum temperature yesterday: 43 °F (at 4:20 PM)
Minimum temperature yesterday: 39 °F (at 8:50 PM)
Average temperature yesterday: 41 °F

High & Low Weather Summary for the Past Weeks

 TemperatureHumidityPressure
High45 °F (Jan 29, 4:20 PM)100% (Jan 24, 5:20 PM)30.07 "Hg (Jan 24, 5:20 PM)
Low25 °F (Jan 24, 5:20 PM)41% (Feb 4, 12:20 PM)28.74 "Hg (Feb 2, 6:20 PM)
Average37 °F86%29.37 "Hg
* Reported Jan 24 5:20 PM — Feb 8 5:50 PM, Skien, Weather by CustomWeather, © 2016

Note: Actual official high and low records may vary slightly from our data, if they occured in-between our weather recording intervals... More about our weather records

Advertising

Skien Weather History for the Previous 24 Hours

 ConditionsComfort  
Time TempWeatherWind HumidityBarometerVisibility
5:50 PM
Mon, Feb 8
39 °FSprinkles. Low clouds.20 mph100%28.80 "Hg5 mi
5:20 PM41 °FSprinkles. Low clouds.18 mph100%28.77 "Hg5 mi
4:50 PM41 °FLow clouds.20 mph100%28.77 "Hg6 mi
4:20 PM41 °FLow clouds.21 mph100%28.77 "Hg4 mi
3:50 PM41 °FLight rain. Fog.21 mph100%28.77 "Hg3 mi
3:20 PM41 °FLight rain. Low clouds.24 mph100%28.77 "Hg4 mi
2:50 PM41 °FLight rain. Fog.23 mph100%28.77 "Hg3 mi
2:20 PM41 °FLight rain. Fog.23 mph100%28.77 "Hg3 mi
1:50 PM41 °FFog.24 mph100%28.77 "Hg3 mi
1:20 PM41 °FLow clouds.22 mph100%28.80 "Hg4 mi
12:50 PM39 °FLight rain. Fog.24 mph100%28.80 "Hg3 mi
12:20 PM39 °FLight rain. Fog.21 mph100%28.80 "Hg2 mi
11:50 AM39 °FRain. Fog.21 mph100%28.82 "Hg2 mi
11:20 AM37 °FRain. Fog.26 mph100%28.82 "Hg2 mi
10:50 AM37 °FRain. Fog.26 mph100%28.85 "Hg2 mi
10:20 AM37 °FRain. Fog.24 mph100%28.85 "Hg2 mi
9:50 AM37 °FLight rain. Fog.23 mph100%28.88 "Hg2 mi
9:20 AM39 °FLight rain. Fog.22 mph100%28.88 "Hg3 mi
8:50 AM37 °FLight rain. Fog.29 mph100%28.91 "Hg3 mi
8:20 AM39 °FLight rain. Partly sunny.26 mph100%28.91 "Hg4 mi
7:50 AM39 °FLight rain. Passing clouds.26 mph100%28.91 "Hg5 mi
7:20 AM39 °FPassing clouds.25 mph100%28.94 "Hg5 mi
6:50 AM39 °FPassing clouds.22 mph100%28.94 "Hg6 mi
6:20 AM39 °FPassing clouds.24 mph100%28.97 "Hg5 mi
5:50 AM39 °FLight rain. Passing clouds.24 mph100%28.97 "Hg5 mi
5:20 AM39 °FDrizzle. Mostly cloudy.23 mph100%29.00 "Hg4 mi
4:50 AM39 °FOvercast.24 mph100%29.00 "Hg6 mi
4:20 AM39 °FLow clouds.25 mph100%29.03 "Hg6 mi
3:50 AM39 °FLow clouds.24 mph100%29.03 "Hg6 mi
3:20 AM39 °FLow clouds.22 mph100%29.03 "Hg5 mi
2:50 AM39 °FLow clouds.21 mph100%29.06 "Hg5 mi
2:20 AM39 °FLow clouds.22 mph100%29.06 "Hg5 mi
1:50 AM39 °FLow clouds.20 mph100%29.09 "Hg4 mi
1:20 AM41 °FMostly cloudy.18 mph100%29.09 "Hg5 mi
12:50 AM39 °FMostly cloudy.18 mph100%29.09 "Hg6 mi
11:50 PM
Sun, Feb 7
39 °FPartly cloudy.21 mph100%29.12 "Hg6 mi
11:20 PM39 °FPartly cloudy.20 mph100%29.12 "HgN/A
10:50 PM39 °FSprinkles. Partly cloudy.26 mph100%29.12 "Hg5 mi
10:20 PM39 °FSprinkles. Partly cloudy.17 mph100%29.12 "Hg5 mi
9:50 PM39 °FSprinkles. Partly cloudy.20 mph100%29.12 "HgN/A
9:20 PM39 °FSprinkles. Partly cloudy.18 mph100%29.12 "HgN/A
8:50 PM39 °FSprinkles. Partly cloudy.20 mph100%29.15 "Hg2 mi
8:20 PM41 °FPartly cloudy.18 mph93%29.15 "HgN/A
7:50 PM41 °FPassing clouds.21 mph93%29.15 "Hg5 mi
7:20 PM41 °FPassing clouds.17 mph100%29.15 "Hg5 mi
Weather by CustomWeather, © 2016

See weather overviewHow to use our weather pages